Time,TemperatureF,DewpointF,PressureIn,WindDirection,WindDirectionDegrees,WindSpeedMPH,WindSpeedGustMPH,Humidity,HourlyPrecipIn,Conditions,Clouds,dailyrainin,SoftwareType,DateUTC
2013-04-16 00:01:00,80.7,76.0,29.90,NE,54,6.0,16.0,86,0.00,,,0.00,weatherlink.com 1.10,2013-04-16 04:01:00,
2013-04-16 00:16:00,80.7,76.0,29.90,ENE,74,7.0,14.0,86,0.00,,,0.00,weatherlink.com 1.10,2013-04-16 04:16:00,
2013-04-16 00:31:00,80.6,76.0,29.89,ESE,108,7.0,16.0,86,0.00,,,0.00,weatherlink.com 1.10,2013-04-16 04:31:00,
2013-04-16 00:46:00,80.6,77.0,29.89,East,85,10.0,13.0,87,0.00,,,0.00,weatherlink.com 1.10,2013-04-16 04:46:00,
2013-04-16 01:01:00,80.6,77.0,29.89,SE,126,5.0,14.0,87,0.00,,,0.00,weatherlink.com 1.10,2013-04-16 05:01:00,
2013-04-16 01:16:00,80.6,77.0,29.88,ENE,77,4.0,19.0,87,0.00,,,0.00,weatherlink.com 1.10,2013-04-16 05:16:00,
2013-04-16 01:31:00,80.4,76.0,29.88,ENE,62,9.0,11.0,86,0.00,,,0.00,weatherlink.com 1.10,2013-04-16 05:31:00,
2013-04-16 01:46:00,80.3,76.0,29.88,East,101,10.0,13.0,86,0.00,,,0.00,weatherlink.com 1.10,2013-04-16 05:46:00,
2013-04-16 02:01:00,80.3,76.0,29.87,East,101,6.0,14.0,86,0.00,,,0.00,weatherlink.com 1.10,2013-04-16 06:01:00,
2013-04-16 02:31:00,80.2,76.0,29.87,East,80,6.0,16.0,87,0.00,,,0.00,weatherlink.com 1.10,2013-04-16 06:31:00,
2013-04-16 02:46:00,80.2,76.0,29.86,East,94,9.0,15.0,87,0.00,,,0.00,weatherlink.com 1.10,2013-04-16 06:46:00,
2013-04-16 03:01:00,80.3,76.0,29.86,East,84,10.0,14.0,86,0.00,,,0.00,weatherlink.com 1.10,2013-04-16 07:01:00,
2013-04-16 03:16:00,80.2,76.0,29.85,East,81,10.0,14.0,86,0.00,,,0.00,weatherlink.com 1.10,2013-04-16 07:16:00,
2013-04-16 03:31:00,80.3,76.0,29.85,ENE,75,8.0,14.0,85,0.00,,,0.00,weatherlink.com 1.10,2013-04-16 07:31:00,
2013-04-16 03:46:00,80.2,76.0,29.84,East,89,6.0,13.0,86,0.00,,,0.00,weatherlink.com 1.10,2013-04-16 07:46:00,
2013-04-16 04:02:00,80.2,76.0,29.84,NE,48,4.0,13.0,86,0.00,,,0.00,weatherlink.com 1.10,2013-04-16 08:02:00,
2013-04-16 04:17:00,80.2,76.0,29.85,East,82,8.0,12.0,86,0.00,,,0.00,weatherlink.com 1.10,2013-04-16 08:17:00,
2013-04-16 04:32:00,80.3,76.0,29.85,ESE,114,3.0,13.0,86,0.00,,,0.00,weatherlink.com 1.10,2013-04-16 08:32:00,
2013-04-16 04:47:00,80.3,76.0,29.86,NE,55,7.0,15.0,85,0.00,,,0.00,weatherlink.com 1.10,2013-04-16 08:47:00,
2013-04-16 05:02:00,80.4,76.0,29.86,ESE,102,5.0,13.0,85,0.00,,,0.00,weatherlink.com 1.10,2013-04-16 09:02:00,
2013-04-16 05:17:00,80.3,76.0,29.87,East,82,3.0,15.0,86,0.00,,,0.00,weatherlink.com 1.10,2013-04-16 09:17:00,
2013-04-16 05:32:00,80.0,76.0,29.87,NE,53,5.0,18.0,87,0.00,,,0.00,weatherlink.com 1.10,2013-04-16 09:32:00,
2013-04-16 05:47:00,80.2,75.0,29.87,East,84,7.0,15.0,85,0.00,,,0.00,weatherlink.com 1.10,2013-04-16 09:47:00,
2013-04-16 06:02:00,80.2,75.0,29.87,ESE,111,5.0,15.0,85,0.00,,,0.00,weatherlink.com 1.10,2013-04-16 10:02:00,
2013-04-16 06:17:00,80.1,76.0,29.88,East,94,8.0,11.0,86,0.00,,,0.00,weatherlink.com 1.10,2013-04-16 10:17:00,
2013-04-16 06:32:00,80.0,76.0,29.88,ESE,108,11.0,17.0,86,0.00,,,0.00,weatherlink.com 1.10,2013-04-16 10:32:00,
2013-04-16 06:47:00,80.1,76.0,29.89,East,90,13.0,13.0,86,0.00,,,0.00,weatherlink.com 1.10,2013-04-16 10:47:00,
2013-04-16 07:02:00,80.4,76.0,29.89,East,81,5.0,16.0,85,0.00,,,0.00,weatherlink.com 1.10,2013-04-16 11:02:00,
2013-04-16 07:17:00,80.8,75.0,29.89,ENE,78,4.0,17.0,83,0.00,,,0.00,weatherlink.com 1.10,2013-04-16 11:17:00,
2013-04-16 07:32:00,81.9,76.0,29.90,East,80,5.0,17.0,82,0.00,,,0.00,weatherlink.com 1.10,2013-04-16 11:32:00,
2013-04-16 07:47:00,81.9,76.0,29.91,ENE,71,12.0,15.0,83,0.00,,,0.00,weatherlink.com 1.10,2013-04-16 11:47:00,
2013-04-16 08:02:00,81.7,76.0,29.91,NE,46,5.0,17.0,83,0.00,,,0.00,weatherlink.com 1.10,2013-04-16 12:02:00,
2013-04-16 08:17:00,82.0,76.0,29.91,ENE,71,11.0,18.0,83,0.00,,,0.00,weatherlink.com 1.10,2013-04-16 12:17:00,
2013-04-16 08:32:00,82.6,77.0,29.91,East,96,11.0,14.0,82,0.00,,,0.00,weatherlink.com 1.10,2013-04-16 12:32:00,
2013-04-16 08:47:00,83.4,77.0,29.91,SE,141,8.0,19.0,81,0.00,,,0.00,weatherlink.com 1.10,2013-04-16 12:47:00,
2013-04-16 09:02:00,83.9,77.0,29.92,East,91,10.0,19.0,79,0.00,,,0.00,weatherlink.com 1.10,2013-04-16 13:02:00,
2013-04-16 09:17:00,83.8,77.0,29.92,ESE,116,10.0,15.0,80,0.00,,,0.00,weatherlink.com 1.10,2013-04-16 13:17:00,
2013-04-16 09:32:00,83.6,77.0,29.92,ESE,122,8.0,18.0,80,0.00,,,0.00,weatherlink.com 1.10,2013-04-16 13:32:00,
2013-04-16 09:47:00,84.4,77.0,29.92,SE,132,14.0,19.0,77,0.00,,,0.00,weatherlink.com 1.10,2013-04-16 13:47:00,
2013-04-16 10:02:00,84.7,77.0,29.92,East,86,13.0,21.0,77,0.00,,,0.00,weatherlink.com 1.10,2013-04-16 14:02:00,
2013-04-16 10:17:00,84.6,77.0,29.92,ENE,67,11.0,17.0,77,0.00,,,0.00,weatherlink.com 1.10,2013-04-16 14:17:00,
2013-04-16 10:32:00,85.2,77.0,29.92,SE,126,4.0,17.0,77,0.00,,,0.00,weatherlink.com 1.10,2013-04-16 14:32:00,
2013-04-16 10:47:00,85.1,77.0,29.92,East,89,7.0,17.0,76,0.00,,,0.00,weatherlink.com 1.10,2013-04-16 14:47:00,
2013-04-16 11:02:00,85.0,77.0,29.92,East,97,13.0,17.0,76,0.00,,,0.00,weatherlink.com 1.10,2013-04-16 15:02:00,
2013-04-16 11:17:00,84.8,77.0,29.91,East,82,10.0,17.0,77,0.00,,,0.00,weatherlink.com 1.10,2013-04-16 15:17:00,
2013-04-16 11:32:00,85.4,77.0,29.91,NE,46,9.0,18.0,76,0.00,,,0.00,weatherlink.com 1.10,2013-04-16 15:32:00,
2013-04-16 11:47:00,85.7,77.0,29.90,East,88,17.0,17.0,75,0.00,,,0.00,weatherlink.com 1.10,2013-04-16 15:47:00,
2013-04-16 12:02:00,85.6,77.0,29.89,ENE,77,9.0,16.0,75,0.00,,,0.00,weatherlink.com 1.10,2013-04-16 16:02:00,
2013-04-16 12:17:00,85.8,77.0,29.89,ENE,73,9.0,19.0,75,0.00,,,0.00,weatherlink.com 1.10,2013-04-16 16:17:00,
2013-04-16 12:32:00,86.9,78.0,29.88,ESE,110,4.0,18.0,74,0.00,,,0.00,weatherlink.com 1.10,2013-04-16 16:32:00,
2013-04-16 12:47:00,86.0,77.0,29.88,ENE,61,8.0,19.0,74,0.00,,,0.00,weatherlink.com 1.10,2013-04-16 16:47:00,
2013-04-16 13:02:00,86.2,77.0,29.87,SE,128,6.0,17.0,73,0.00,,,0.00,weatherlink.com 1.10,2013-04-16 17:02:00,
2013-04-16 13:17:00,86.1,77.0,29.86,NE,40,5.0,15.0,73,0.00,,,0.00,weatherlink.com 1.10,2013-04-16 17:17:00,
2013-04-16 13:32:00,85.8,77.0,29.86,East,98,8.0,17.0,75,0.00,,,0.00,weatherlink.com 1.10,2013-04-16 17:32:00,
2013-04-16 13:47:00,85.8,77.0,29.86,NE,36,9.0,23.0,74,0.00,,,0.00,weatherlink.com 1.10,2013-04-16 17:47:00,
2013-04-16 14:02:00,85.4,77.0,29.85,East,86,9.0,17.0,75,0.00,,,0.00,weatherlink.com 1.10,2013-04-16 18:02:00,
2013-04-16 14:17:00,85.8,77.0,29.85,ENE,72,8.0,17.0,74,0.00,,,0.00,weatherlink.com 1.10,2013-04-16 18:17:00,
2013-04-16 14:32:00,85.4,77.0,29.84,NE,53,11.0,19.0,75,0.00,,,0.00,weatherlink.com 1.10,2013-04-16 18:32:00,
2013-04-16 14:47:00,85.8,77.0,29.84,NE,40,5.0,15.0,74,0.00,,,0.00,weatherlink.com 1.10,2013-04-16 18:47:00,
2013-04-16 15:02:00,85.7,77.0,29.84,ESE,102,9.0,18.0,74,0.00,,,0.00,weatherlink.com 1.10,2013-04-16 19:02:00,
2013-04-16 15:17:00,85.7,76.0,29.83,East,84,6.0,17.0,73,0.00,,,0.00,weatherlink.com 1.10,2013-04-16 19:17:00,
2013-04-16 15:32:00,85.7,77.0,29.83,East,98,9.0,13.0,74,0.00,,,0.00,weatherlink.com 1.10,2013-04-16 19:32:00,
2013-04-16 15:47:00,84.6,76.0,29.82,East,86,7.0,19.0,75,0.00,,,0.00,weatherlink.com 1.10,2013-04-16 19:47:00,
2013-04-16 16:03:00,85.0,76.0,29.82,ESE,116,9.0,16.0,75,0.00,,,0.00,weatherlink.com 1.10,2013-04-16 20:03:00,
2013-04-16 16:18:00,84.5,76.0,29.81,ENE,72,4.0,16.0,76,0.00,,,0.00,weatherlink.com 1.10,2013-04-16 20:18:00,
2013-04-16 16:33:00,84.0,76.0,29.81,ENE,74,12.0,17.0,76,0.00,,,0.00,weatherlink.com 1.10,2013-04-16 20:33:00,
2013-04-16 16:48:00,83.8,76.0,29.81,East,98,14.0,17.0,77,0.00,,,0.00,weatherlink.com 1.10,2013-04-16 20:48:00,
2013-04-16 17:03:00,83.8,76.0,29.80,NE,46,4.0,17.0,77,0.00,,,0.00,weatherlink.com 1.10,2013-04-16 21:03:00,
2013-04-16 17:18:00,83.6,76.0,29.80,ESE,117,5.0,18.0,78,0.00,,,0.00,weatherlink.com 1.10,2013-04-16 21:18:00,
2013-04-16 17:33:00,83.3,76.0,29.80,ENE,60,13.0,15.0,79,0.00,,,0.00,weatherlink.com 1.10,2013-04-16 21:33:00,
2013-04-16 17:48:00,82.9,75.0,29.81,East,88,11.0,18.0,78,0.00,,,0.00,weatherlink.com 1.10,2013-04-16 21:48:00,
2013-04-16 18:03:00,82.5,76.0,29.81,ENE,59,14.0,16.0,80,0.00,,,0.00,weatherlink.com 1.10,2013-04-16 22:03:00,
2013-04-16 18:18:00,82.0,76.0,29.81,East,81,13.0,18.0,81,0.00,,,0.00,weatherlink.com 1.10,2013-04-16 22:18:00,
2013-04-16 18:33:00,81.6,75.0,29.82,ENE,57,5.0,16.0,81,0.00,,,0.00,weatherlink.com 1.10,2013-04-16 22:33:00,
2013-04-16 18:48:00,81.3,75.0,29.82,NE,43,8.0,13.0,82,0.00,,,0.00,weatherlink.com 1.10,2013-04-16 22:48:00,
2013-04-16 19:03:00,81.1,75.0,29.83,ENE,78,9.0,16.0,82,0.00,,,0.00,weatherlink.com 1.10,2013-04-16 23:03:00,
2013-04-16 19:18:00,80.9,75.0,29.83,NE,51,9.0,14.0,83,0.00,,,0.00,weatherlink.com 1.10,2013-04-16 23:18:00,
2013-04-16 19:33:00,80.8,76.0,29.84,NE,49,2.0,15.0,84,0.00,,,0.00,weatherlink.com 1.10,2013-04-16 23:33:00,
2013-04-16 19:48:00,80.7,76.0,29.84,ENE,65,7.0,14.0,84,0.00,,,0.00,weatherlink.com 1.10,2013-04-16 23:48:00,
2013-04-16 20:03:00,80.7,76.0,29.84,ESE,103,7.0,16.0,85,0.00,,,0.00,weatherlink.com 1.10,2013-04-17 00:03:00,
2013-04-16 20:18:00,80.6,76.0,29.85,ENE,67,13.0,16.0,85,0.00,,,0.00,weatherlink.com 1.10,2013-04-17 00:18:00,
2013-04-16 20:33:00,80.5,76.0,29.85,NE,45,6.0,16.0,85,0.00,,,0.00,weatherlink.com 1.10,2013-04-17 00:33:00,
2013-04-16 20:48:00,80.5,76.0,29.85,East,79,5.0,15.0,86,0.00,,,0.00,weatherlink.com 1.10,2013-04-17 00:48:00,
2013-04-16 21:03:00,80.4,76.0,29.85,SSE,159,7.0,16.0,86,0.00,,,0.00,weatherlink.com 1.10,2013-04-17 01:03:00,
2013-04-16 21:18:00,80.4,76.0,29.86,ENE,76,7.0,17.0,86,0.00,,,0.00,weatherlink.com 1.10,2013-04-17 01:18:00,
2013-04-16 21:33:00,80.4,76.0,29.86,ENE,71,4.0,18.0,86,0.00,,,0.00,weatherlink.com 1.10,2013-04-17 01:33:00,
2013-04-16 21:48:00,80.4,76.0,29.86,ENE,74,4.0,15.0,86,0.00,,,0.00,weatherlink.com 1.10,2013-04-17 01:48:00,
2013-04-16 22:03:00,80.5,76.0,29.87,NE,49,6.0,18.0,86,0.00,,,0.00,weatherlink.com 1.10,2013-04-17 02:03:00,
2013-04-16 22:18:00,80.5,76.0,29.88,ENE,66,14.0,17.0,86,0.00,,,0.00,weatherlink.com 1.10,2013-04-17 02:18:00,
2013-04-16 22:33:00,80.5,76.0,29.88,ENE,76,10.0,17.0,86,0.00,,,0.00,weatherlink.com 1.10,2013-04-17 02:33:00,
2013-04-16 22:48:00,80.5,76.0,29.88,ENE,63,3.0,14.0,87,0.00,,,0.00,weatherlink.com 1.10,2013-04-17 02:48:00,
2013-04-16 23:03:00,80.5,76.0,29.89,ENE,62,12.0,15.0,87,0.00,,,0.00,weatherlink.com 1.10,2013-04-17 03:03:00,
2013-04-16 23:18:00,80.5,76.0,29.88,East,80,7.0,14.0,87,0.00,,,0.00,weatherlink.com 1.10,2013-04-17 03:18:00,
2013-04-16 23:33:00,80.5,76.0,29.88,ENE,70,8.0,18.0,87,0.00,,,0.00,weatherlink.com 1.10,2013-04-17 03:33:00,
2013-04-16 23:48:00,80.6,77.0,29.89,ESE,109,4.0,17.0,87,0.00,,,0.00,weatherlink.com 1.10,2013-04-17 03:48:00,